Theta_e
316 316 316 317 316 316 317 317 317 318 318 318 318 319 320 320 321 321 322 322 323 324 324 324 325 325 326 326 327 326 324 322 322 319 314 318 327 332 333 336 335 336 336 326 322 314 308 308 307 309 312 314 317 313 314 317 312 316 303 299 296 295 298 302 300 299 302 299 298 300 301 300 298 301 303 306 304 302 303 302 305 306 305 309 322 328 327 328
315 315 316 316 316 316 316 316 317 317 318 318 318 318 319 320 320 320 322 322 323 323 324 325 325 326 325 325 326 326 322 326 318 318 317 325 332 334 334 335 335 335 332 323 314 308 307 306 306 307 308 308 319 312 315 313 317 308 300 299 294 300 300 301 301 302 300 299 300 301 300 300 300 301 301 299 299 299 300 301 303 302 304 305 312 325 325 325
315 315 316 315 315 316 316 316 316 317 317 317 317 318 318 318 319 320 320 321 322 323 323 324 324 324 325 325 325 324 324 324 317 313 321 332 332 333 334 334 334 335 323 319 317 312 308 307 306 306 306 305 308 308 312 309 311 306 304 297 299 303 300 302 303 301 302 304 301 300 301 300 301 301 303 299 298 300 298 298 299 301 302 303 308 323 323 323
316 315 315 315 315 315 315 315 316 316 316 316 316 317 317 318 319 319 320 320 321 322 323 324 324 324 324 325 325 323 322 323 310 314 323 331 332 333 330 332 332 330 326 324 321 312 310 308 306 306 309 306 306 312 305 308 305 306 302 300 302 300 300 301 303 302 302 302 303 301 301 301 302 302 301 300 297 298 300 302 302 302 303 304 304 317 321 321
315 315 314 314 315 315 315 315 315 315 316 316 316 316 317 317 318 318 319 320 321 321 323 323 323 324 324 325 323 324 326 301 304 318 320 330 331 328 328 330 331 322 317 317 315 310 308 306 306 306 307 299 304 303 301 306 308 307 299 301 301 301 299 301 301 301 300 301 303 301 299 299 303 303 301 300 296 296 300 304 303 305 306 305 304 314 320 320
316 315 314 314 314 314 314 315 315 315 315 315 316 316 316 317 318 318 318 319 320 321 322 323 323 323 324 323 320 326 317 290 311 322 325 327 329 325 327 330 332 323 313 312 310 310 307 306 305 304 300 300 299 297 300 302 306 298 301 300 301 301 301 303 302 300 299 303 301 300 302 302 301 301 301 300 299 301 304 304 305 306 308 307 307 313 318 319
316 315 314 313 314 314 314 314 315 315 315 316 316 316 317 317 317 318 318 319 319 320 321 322 323 323 322 321 324 322 310 310 314 325 329 326 327 326 324 330 331 318 311 309 308 309 306 304 304 301 300 301 299 298 302 301 304 301 297 300 300 302 301 302 300 301 300 300 300 301 303 302 300 298 302 300 302 303 304 305 304 305 309 309 307 310 315 319
315 314 314 313 313 313 314 314 314 315 315 315 316 316 317 317 317 318 318 319 319 320 321 322 322 322 321 324 321 311 311 311 318 324 322 326 322 318 326 318 315 320 312 309 309 306 307 303 301 306 300 298 300 300 303 300 301 298 297 301 302 302 301 300 299 299 301 302 301 302 300 299 302 300 299 300 302 303 304 304 304 304 307 309 309 309 311 315
315 314 313 313 313 313 314 314 314 314 315 315 316 316 317 317 317 318 318 319 319 320 321 322 322 322 321 317 316 307 301 320 322 320 324 321 316 317 322 318 314 311 311 311 310 309 309 303 302 305 297 300 302 299 299 297 295 299 300 300 300 301 301 300 300 301 301 302 302 302 299 301 301 302 299 301 303 304 304 303 303 304 303 305 309 310 310 313
314 314 313 312 313 312 313 313 313 314 314 315 315 316 316 317 317 318 318 319 319 320 321 321 322 321 318 319 315 299 318 316 321 318 319 316 314 314 315 318 315 312 310 310 311 308 308 307 307 308 310 301 304 300 302 299 298 303 300 301 301 300 300 301 302 301 302 303 301 299 299 300 300 300 295 302 303 303 303 303 303 303 302 302 305 309 309 311
314 313 312 312 313 312 314 312 313 314 314 314 315 316 317 317 317 317 318 319 319 320 320 321 322 321 323 318 307 297 321 323 320 314 316 316 314 314 319 316 313 313 312 311 312 309 311 310 312 310 306 300 303 300 301 301 303 303 301 300 299 301 302 301 302 300 300 300 301 301 298 301 300 301 297 301 303 304 303 302 302 302 301 302 303 304 307 309
314 314 312 312 312 313 313 313 313 314 314 314 315 315 316 317 317 317 318 319 320 320 321 321 321 320 315 312 305 306 317 318 317 313 321 317 317 316 318 315 313 320 313 310 314 317 316 313 310 306 298 305 296 300 300 302 303 301 301 296 298 299 299 300 300 300 301 300 301 302 298 296 297 295 301 302 302 303 303 303 302 302 302 302 302 303 303 306
314 313 313 312 312 313 313 313 313 313 314 315 315 316 316 317 317 318 318 319 320 321 321 322 320 322 319 303 312 319 320 318 317 313 318 317 315 315 317 318 319 316 315 314 313 316 316 311 310 307 308 304 300 295 302 305 303 303 301 300 297 296 295 300 301 300 299 300 301 300 288 291 296 300 302 302 302 302 302 300 301 302 303 303 303 302 303 303
314 314 313 313 313 313 314 314 314 315 315 315 315 316 316 317 317 318 319 318 320 321 321 321 320 315 311 300 313 320 318 319 314 314 319 318 314 321 319 322 319 314 319 310 314 312 316 311 315 307 308 303 299 306 302 302 303 296 298 299 294 291 291 300 300 299 298 300 300 301 290 291 297 301 302 302 303 301 300 299 300 302 303 303 303 302 303 304
315 315 315 314 314 314 314 316 315 315 316 316 316 316 316 317 317 318 319 319 320 322 320 320 319 318 304 307 318 318 327 318 314 315 319 314 315 317 312 315 313 312 310 310 313 314 310 315 312 304 300 306 304 301 297 297 297 298 292 289 293 292 295 299 301 299 296 298 301 299 291 293 297 299 302 302 302 302 299 299 300 302 302 303 303 303 303 304
316 316 315 316 316 316 316 317 316 316 317 317 316 316 317 318 318 318 318 319 321 321 321 320 321 314 301 299 315 325 322 311 310 319 314 318 318 316 316 316 316 314 312 309 314 312 311 313 305 306 301 303 300 297 294 294 295 297 292 293 290 293 294 296 298 301 300 298 300 297 291 295 296 299 301 300 301 300 299 300 301 302 302 302 301 302 302 304
317 317 316 316 316 317 317 317 317 317 317 317 317 317 317 318 318 319 320 321 321 320 320 312 311 309 298 308 308 310 308 317 315 319 317 314 313 315 315 315 310 309 312 313 316 316 311 308 306 305 305 297 298 299 292 290 291 291 295 290 297 292 292 291 296 299 301 299 294 297 293 294 297 299 300 300 301 300 299 300 301 302 301 301 301 302 303 303
318 318 317 317 317 317 318 318 318 318 317 317 317 317 317 319 321 320 320 318 320 316 316 313 310 309 297 301 301 305 314 312 318 313 315 311 314 311 312 310 308 308 310 307 312 308 310 302 303 298 298 298 297 295 289 286 291 290 290 290 291 296 295 293 292 296 298 297 295 294 294 295 297 300 301 300 301 301 300 300 301 301 301 301 302 302 303 303
319 318 318 318 318 318 318 318 318 318 317 318 319 320 319 319 320 318 317 313 309 301 299 301 299 291 293 298 309 311 316 313 317 317 308 314 318 313 313 312 313 306 304 300 302 305 307 304 305 298 294 293 294 296 294 296 297 295 297 293 293 292 292 292 295 298 298 294 293 293 293 295 297 298 300 301 301 300 300 300 300 300 301 301 301 302 303 303
319 319 319 319 319 319 319 319 318 318 317 315 319 316 317 312 311 303 310 309 304 299 303 302 301 301 305 307 308 309 315 317 307 311 316 317 315 311 308 309 313 308 302 298 303 301 307 297 293 291 296 296 297 298 298 298 297 296 297 296 293 293 294 295 295 296 297 294 292 294 295 295 296 298 299 299 299 298 298 299 300 300 301 301 301 302 302 303
320 320 319 319 319 319 319 318 318 318 317 315 315 313 299 300 295 293 301 303 305 305 305 302 305 306 306 309 308 308 305 307 310 310 316 317 310 308 304 306 303 300 300 303 302 303 305 295 296 298 299 299 298 299 298 298 297 296 294 293 291 295 290 296 295 296 297 294 291 293 292 293 295 297 299 300 299 298 299 300 300 300 300 302 302 302 302 303
319 320 320 319 319 319 319 319 318 318 317 315 314 310 304 303 307 307 305 294 305 307 307 307 306 304 310 310 312 313 313 303 308 310 316 316 308 303 302 302 300 296 301 301 299 297 294 292 297 299 300 300 299 299 298 296 296 297 293 292 291 291 295 296 295 297 297 295 290 292 291 293 296 298 299 299 299 300 300 301 301 301 300 301 302 302 303 303
319 320 320 320 319 319 319 319 317 317 315 315 310 308 308 312 316 315 309 303 300 308 304 305 301 303 305 309 310 311 305 299 300 307 307 315 305 304 302 298 298 297 300 300 295 294 291 294 299 301 300 298 297 296 296 297 296 294 293 290 288 296 293 289 294 295 296 293 290 291 291 293 296 297 298 299 299 300 301 301 302 302 301 301 302 302 302 302
320 320 320 320 320 319 319 318 318 316 315 314 311 311 315 318 317 315 312 302 300 299 304 303 304 304 303 303 309 307 304 302 305 302 310 309 302 306 303 300 297 297 296 298 297 294 293 297 297 300 298 299 297 296 296 293 291 294 295 293 292 295 294 292 291 294 295 296 296 292 291 292 295 295 296 299 301 299 300 300 300 301 303 303 304 304 305 302
319 319 319 320 319 320 318 316 314 315 317 311 311 314 316 318 318 316 308 298 298 301 307 307 309 308 306 312 312 305 304 304 307 307 309 309 304 301 301 305 301 294 296 298 297 295 294 297 300 297 300 296 296 293 294 296 291 292 295 296 294 294 293 293 296 293 288 288 295 294 282 283 290 292 293 294 298 298 298 299 300 300 302 302 303 304 304 306
317 319 319 319 319 318 317 313 314 315 310 310 312 316 314 317 317 310 305 293 288 297 300 293 305 297 312 304 311 308 303 298 305 311 309 311 310 305 302 299 300 295 296 297 296 296 295 297 299 297 297 296 297 294 296 296 292 289 290 295 296 295 295 294 294 292 284 282 292 294 283 281 289 290 292 293 294 294 298 299 299 299 302 302 303 303 304 305
315 317 319 319 318 317 313 311 317 314 310 309 316 317 315 314 318 312 295 289 283 295 291 300 299 299 310 304 305 300 288 292 308 309 307 311 306 308 298 296 298 299 299 300 292 292 296 296 296 298 297 296 295 292 297 295 291 286 296 297 295 294 293 294 295 292 288 294 295 293 291 281 283 289 292 294 294 293 294 296 297 298 300 300 301 304 304 305
313 315 317 319 318 317 316 315 315 312 310 313 317 316 316 316 318 312 296 279 278 299 296 294 301 309 308 304 307 296 297 302 297 302 305 311 309 303 299 297 296 297 299 296 284 297 296 294 296 295 296 293 292 296 298 298 293 294 296 298 296 295 297 296 292 290 290 286 282 289 292 283 281 290 294 294 291 292 294 296 297 299 299 299 300 301 304 305
312 312 314 318 318 318 318 316 314 311 313 316 318 314 318 318 310 301 288 278 298 294 308 294 311 307 303 305 302 300 298 301 296 301 309 308 309 303 295 297 298 297 299 298 291 296 297 298 298 298 294 292 294 294 297 299 292 294 298 299 299 298 297 297 290 289 288 284 281 286 291 281 282 289 292 292 290 291 292 296 298 297 298 299 301 301 302 303
311 311 313 317 317 317 316 318 315 315 317 318 319 317 318 313 304 288 282 274 300 289 297 297 296 295 299 296 295 297 296 299 301 302 303 301 305 308 301 303 300 298 296 298 297 296 296 298 296 298 296 298 293 295 297 296 297 299 298 297 296 295 292 291 289 286 283 280 282 289 292 287 280 285 289 288 292 292 294 294 297 299 300 301 302 303 301 302
311 312 313 316 314 316 316 312 317 317 318 319 318 317 313 305 292 282 276 287 298 296 297 294 294 299 295 292 289 295 296 297 299 300 297 302 298 301 301 297 302 295 290 292 291 294 296 296 296 298 297 298 297 295 298 299 299 299 295 291 291 289 289 287 286 285 280 277 285 287 292 291 280 284 291 293 295 295 295 294 297 298 299 301 303 303 303 302
311 311 313 316 316 318 313 311 316 318 318 318 316 312 301 287 290 281 281 295 289 291 292 290 295 295 294 295 294 291 292 296 298 298 295 295 294 293 294 290 292 284 284 285 286 292 290 292 296 296 297 297 296 293 293 296 298 297 292 290 283 281 282 280 283 279 279 278 285 284 287 284 286 289 291 293 294 295 296 296 297 298 300 302 302 301 301 302
310 311 312 312 314 315 317 315 316 315 317 316 312 307 293 286 276 286 288 290 286 296 294 298 293 294 294 293 292 293 297 291 298 296 297 296 294 294 297 295 296 291 283 288 286 285 288 294 295 295 296 297 298 290 286 285 291 292 288 283 281 277 276 273 277 281 281 282 282 284 289 282 287 288 295 296 298 299 296 299 300 299 299 300 303 303 303 302
310 311 309 312 311 315 316 316 316 317 316 313 305 297 292 281 280 293 290 292 295 297 297 296 294 295 294 290 293 294 290 294 295 295 296 293 293 290 293 296 296 293 292 287 284 285 281 282 291 292 288 297 295 295 293 290 291 291 293 290 283 281 277 273 277 275 276 280 281 283 280 279 279 286 293 294 294 295 296 297 298 299 300 300 303 304 302 302
310 310 311 312 313 315 315 315 316 318 314 308 298 289 283 281 285 286 287 293 294 296 295 298 294 292 291 293 295 295 295 290 295 295 293 293 289 290 291 292 295 295 294 285 288 286 286 285 294 297 296 297 295 298 298 295 291 292 293 295 286 283 287 279 282 280 279 280 279 279 280 283 286 292 294 295 295 296 294 295 296 296 298 299 301 299 301 302
309 309 310 307 309 313 315 315 316 316 310 302 290 285 283 286 284 293 291 299 296 294 293 295 295 290 288 290 295 293 297 295 294 294 293 294 294 291 295 295 294 295 292 286 289 283 286 282 294 297 295 295 296 297 297 298 283 289 291 284 288 293 290 285 280 283 280 278 277 282 284 287 289 294 295 296 296 295 295 293 294 295 296 297 298 298 299 301
303 306 302 307 309 314 314 315 315 312 308 300 288 283 287 287 295 297 300 297 299 296 293 288 289 289 287 287 289 292 294 298 293 292 287 294 291 294 294 296 298 295 297 293 288 292 284 287 291 293 292 295 293 296 298 295 299 292 283 288 294 295 293 285 278 281 278 275 278 280 279 283 281 280 290 292 291 292 292 294 295 295 295 295 297 297 299 301
301 301 301 303 310 314 315 314 313 309 304 296 287 289 295 289 299 298 302 299 300 297 293 290 291 293 288 289 288 291 294 290 291 292 288 292 287 297 294 294 298 297 298 298 289 291 292 282 287 291 292 294 297 297 296 298 296 292 289 298 290 281 281 283 281 274 273 273 276 279 280 282 284 285 288 288 290 290 292 292 293 294 294 295 295 297 299 301
300 298 294 302 310 315 315 315 311 303 298 290 287 286 293 294 298 298 301 299 299 296 291 293 290 292 294 289 291 292 292 286 292 289 286 289 285 295 295 296 295 298 298 298 292 292 291 282 285 289 291 293 294 292 284 287 294 297 296 293 295 288 283 281 281 281 279 274 273 277 278 279 288 288 290 289 290 291 292 292 292 293 295 297 299 302 302 302
296 292 289 309 311 314 315 313 306 300 294 286 288 289 298 293 297 300 300 300 297 293 294 293 295 291 292 294 294 290 292 291 291 290 289 292 290 297 294 298 296 296 297 298 294 296 287 288 279 285 291 292 283 288 286 289 286 284 285 285 288 286 289 285 285 282 278 275 274 274 276 281 288 291 291 292 292 293 292 295 296 297 298 300 301 301 301 301
298 293 293 308 312 313 313 306 298 293 292 295 297 294 297 295 298 299 301 302 300 301 298 296 293 291 295 292 292 295 291 291 293 290 290 291 291 287 297 298 298 295 297 297 294 294 286 284 282 283 283 283 287 293 292 293 293 290 289 287 289 285 282 279 279 288 283 280 276 276 277 284 291 294 295 293 293 296 296 296 297 295 296 297 300 300 300 301
292 283 290 307 311 311 305 295 294 298 294 291 291 296 296 303 298 298 299 301 300 297 301 298 298 295 293 293 295 291 292 290 292 291 291 289 294 293 297 299 299 299 295 288 291 296 292 288 283 281 284 287 290 294 295 293 295 293 291 288 291 290 286 281 277 279 284 283 285 281 278 284 293 293 293 294 294 295 297 296 295 295 296 297 301 303 303 302
290 285 302 306 311 308 300 292 295 294 291 295 300 299 301 298 298 299 297 299 296 299 297 295 296 294 296 295 294 293 294 289 292 290 294 294 295 296 299 299 302 298 297 291 296 293 295 287 283 283 289 290 291 295 295 294 295 291 291 292 289 287 288 285 282 283 281 282 281 281 279 284 294 294 293 293 291 292 296 294 295 295 296 296 300 300 301 301
291 290 297 306 309 306 296 286 287 290 291 296 296 295 300 299 298 296 296 297 296 296 295 296 297 298 296 298 296 290 295 286 293 292 289 293 291 300 300 300 299 296 295 292 290 295 287 287 286 281 280 282 285 288 288 291 291 287 286 291 293 293 291 285 284 283 282 282 281 280 277 283 293 292 292 291 293 294 294 296 294 295 295 298 298 298 301 302
291 294 294 300 305 303 291 293 290 289 290 291 292 291 294 295 299 298 297 296 299 297 296 295 297 298 296 298 295 296 296 292 288 295 294 294 294 300 299 300 297 295 299 300 298 299 289 287 286 281 277 275 275 276 278 281 284 286 289 289 292 292 290 285 283 282 281 283 285 282 282 288 293 295 294 294 294 293 292 293 292 294 296 298 298 299 301 300
287 281 288 292 298 297 296 298 294 292 290 290 289 291 294 292 297 299 299 297 299 298 298 299 298 298 296 296 293 293 293 295 292 290 291 291 293 295 299 298 298 298 296 296 296 295 286 288 288 286 284 282 283 285 289 289 285 282 284 288 289 290 291 289 285 283 282 284 284 285 286 287 289 292 293 294 294 294 292 293 295 295 295 296 296 298 299 300
292 284 286 283 292 293 292 294 293 293 290 293 286 291 289 291 294 295 300 293 298 297 297 297 296 294 293 294 292 292 294 293 294 293 292 292 294 295 298 299 299 296 294 294 295 290 287 286 289 289 287 288 289 289 291 292 287 288 286 286 288 288 287 286 286 284 289 283 281 288 289 286 288 292 293 293 295 295 294 293 294 295 296 297 297 297 297 298
284 287 290 292 287 283 286 288 292 291 293 293 289 292 289 289 290 289 295 297 298 298 293 295 296 296 295 293 293 289 292 292 292 289 294 293 292 294 294 297 295 295 294 293 296 293 286 285 289 290 288 290 291 291 292 291 291 290 289 289 287 288 287 285 287 290 289 285 283 288 288 287 290 292 294 295 296 296 296 296 296 296 297 297 297 297 298 298
290 291 289 294 287 289 289 291 293 291 291 292 290 290 288 288 288 290 292 292 294 293 295 288 291 294 294 295 293 290 291 286 287 292 290 289 291 290 289 294 296 295 294 293 292 291 289 285 288 289 287 289 290 291 291 290 290 290 290 290 291 289 289 289 289 290 290 288 290 290 290 290 292 293 295 297 298 298 298 298 298 298 298 297 296 296 296 297
286 285 285 292 290 289 291 291 291 290 287 291 286 289 289 289 288 291 293 292 288 291 296 291 292 294 294 295 294 290 292 292 291 288 293 293 289 292 290 292 289 291 292 290 290 292 291 285 290 288 285 286 289 291 291 291 290 288 290 291 292 291 291 290 290 290 290 289 291 291 289 289 295 297 296 298 299 299 298 297 298 299 299 298 297 297 298 298
293 293 293 288 285 286 289 290 289 288 286 288 286 288 289 289 288 291 291 295 293 290 293 291 293 293 295 294 294 293 295 295 295 295 296 295 289 294 291 291 296 288 290 289 289 289 289 284 288 286 284 284 288 288 289 289 288 287 287 289 290 289 287 289 288 291 288 287 289 288 287 288 294 297 296 297 298 297 297 297 298 299 299 298 297 297 298 299
294 295 295 291 284 288 285 288 289 288 284 288 288 288 288 289 291 292 288 294 295 295 295 294 294 292 292 292 291 294 296 296 297 297 298 298 298 297 299 297 298 294 289 288 291 287 288 285 284 284 283 283 287 287 286 285 285 284 285 288 290 291 292 292 292 293 292 293 288 286 287 293 295 296 295 295 296 297 297 297 298 299 299 298 297 298 299 300
Wind_Speed
3 4 3 2 2 2 3 3 3 3 3 4 5 5 5 5 6 6 6 6 7 8 8 9 9 10 10 11 11 11 11 3 3 4 7 1 1 3 3 4 6 7 6 5 6 5 4 4 3 3 2 1 1 1 1 0 1 0 0 1 2 5 0 2 1 2 7 5 4 5 5 4 4 2 1 1 0 1 3 2 4 5 6 7 6 7 8 8
5 4 5 3 3 3 2 3 3 4 4 4 5 5 6 6 6 6 7 7 7 8 8 8 9 10 11 11 11 10 6 2 5 7 0 2 1 3 5 5 5 6 6 3 5 5 6 4 3 4 4 2 0 0 0 0 0 2 1 2 4 0 1 4 5 9 3 6 6 4 4 4 4 7 3 2 3 4 3 3 4 4 7 5 5 9 8 7
7 5 4 3 3 3 2 3 3 4 4 5 5 6 6 6 6 6 7 8 8 8 9 9 9 10 10 11 10 10 4 2 4 5 2 2 2 4 5 4 5 4 2 4 5 9 6 2 5 4 4 2 3 2 1 1 0 1 1 2 1 2 4 6 7 5 4 2 7 5 3 3 4 5 3 2 3 7 6 4 5 5 6 8 7 8 9 7
7 5 4 4 3 2 3 3 4 4 4 4 5 5 5 6 6 6 7 8 8 9 9 9 9 10 10 11 11 7 2 2 4 4 2 4 3 4 4 5 5 5 4 6 7 8 5 4 3 5 1 2 1 1 3 2 1 0 1 0 1 4 2 5 6 5 3 4 2 5 3 1 3 2 3 3 3 4 6 6 7 8 9 12 11 10 9 9
8 4 5 5 4 4 4 4 4 4 4 4 5 5 5 6 6 6 7 8 8 9 9 9 10 10 10 10 12 3 1 2 2 3 2 2 3 3 3 4 5 3 4 6 8 6 5 3 2 3 2 1 3 2 2 2 1 0 1 3 2 5 4 3 5 5 3 3 3 5 4 3 3 3 2 3 3 3 0 2 3 8 10 14 13 11 9 10
8 7 5 5 5 5 4 4 4 4 4 4 4 4 5 5 6 6 7 7 8 9 9 9 10 11 10 10 5 2 0 2 1 1 1 2 2 2 3 5 4 3 4 5 4 2 3 3 3 2 1 2 4 3 3 3 1 1 0 3 4 2 3 1 2 2 4 1 3 3 1 3 2 2 4 4 6 2 2 5 7 6 9 13 11 10 9 10
8 7 6 5 6 5 4 4 4 4 4 4 4 4 5 5 6 6 6 7 8 9 10 9 10 11 13 9 2 1 3 1 0 1 2 2 3 1 3 4 4 3 3 3 4 2 3 3 4 3 3 2 5 2 2 3 1 1 1 1 3 4 5 3 2 1 1 5 3 1 1 0 2 3 0 6 6 5 4 6 7 6 8 11 11 10 12 12
7 6 5 6 6 5 5 4 5 5 5 4 4 5 5 5 6 7 7 7 7 8 9 9 9 10 11 2 1 2 2 1 2 4 1 1 4 2 3 2 2 1 3 4 3 4 2 4 6 2 3 1 2 3 3 3 3 2 2 3 1 2 2 3 2 2 1 0 2 3 1 2 2 1 3 3 4 4 3 4 5 5 5 7 8 8 8 8
9 7 6 7 6 6 5 6 5 6 5 5 6 6 6 5 6 7 8 7 7 7 8 8 9 9 5 1 3 3 4 1 4 3 2 3 2 1 2 1 5 2 2 3 3 5 3 3 5 2 1 3 1 4 2 2 2 3 3 4 3 3 2 2 3 1 0 2 1 0 2 4 3 1 3 8 7 5 4 4 5 5 5 5 8 8 8 8
7 6 7 6 7 7 6 6 6 6 5 6 7 7 7 7 6 7 8 7 7 7 7 7 8 8 3 1 2 4 1 6 4 1 3 2 4 2 4 2 2 3 3 1 2 3 2 3 2 2 1 3 0 2 1 2 0 1 4 3 4 4 3 2 1 2 1 1 1 1 2 0 2 4 5 1 2 6 6 5 5 6 5 5 5 7 7 9
7 7 6 8 8 7 6 6 7 7 6 6 7 8 8 8 7 7 7 7 7 6 6 6 7 7 1 3 3 4 1 2 2 2 1 3 5 2 1 4 2 2 4 1 1 3 3 5 3 1 2 0 3 2 1 0 1 2 5 5 4 2 2 1 1 3 1 1 1 1 3 3 4 1 9 4 1 3 5 4 5 5 5 5 7 6 7 8
7 8 8 9 8 7 7 6 6 7 7 7 8 7 8 8 8 8 8 7 8 5 5 5 6 2 2 3 6 1 3 2 2 2 1 2 1 2 2 1 1 2 1 2 3 3 2 3 6 0 1 2 2 3 1 2 1 4 4 3 4 3 2 4 3 3 1 1 1 0 3 5 3 5 16 6 5 4 4 5 5 6 5 6 6 7 6 7
8 7 8 8 7 7 6 6 6 6 6 6 7 8 8 9 9 9 8 8 5 6 5 5 4 2 2 2 1 1 1 1 0 4 1 0 1 0 1 0 2 1 2 1 1 1 2 3 3 1 2 3 3 1 2 2 2 1 1 1 4 3 3 7 3 3 1 1 2 1 2 5 9 17 12 7 7 5 5 5 5 5 6 6 6 6 7 6
8 7 8 9 8 7 6 5 4 5 6 7 7 8 9 9 9 10 9 8 9 7 5 4 1 2 1 0 1 0 2 2 2 3 2 2 3 0 1 1 1 2 2 5 2 1 2 2 3 3 1 3 1 2 2 1 1 2 3 0 1 3 2 7 3 5 3 1 2 1 2 7 6 6 2 5 7 7 5 5 5 6 6 6 7 6 6 7
9 9 8 8 8 7 5 4 4 5 6 7 8 9 9 10 10 10 9 9 8 4 3 2 2 1 2 1 1 1 2 4 2 3 2 4 1 1 3 2 3 3 3 3 1 0 2 2 2 1 2 1 4 3 3 2 2 1 3 2 3 2 1 1 2 6 3 1 3 2 3 9 13 3 2 4 3 2 4 4 5 6 5 5 6 7 6 7
9 9 8 8 8 8 8 7 7 7 7 8 9 9 9 10 10 9 9 8 9 7 3 2 3 1 2 3 1 1 1 2 3 1 1 2 2 1 2 3 2 2 2 2 0 1 1 1 3 1 2 1 2 2 4 2 1 1 3 1 3 3 3 1 2 3 3 4 1 5 5 3 1 3 2 4 5 4 3 4 5 6 5 5 5 6 6 6
10 9 9 8 7 8 7 7 7 8 8 9 9 10 11 11 10 8 8 6 4 4 2 1 2 4 3 1 2 3 4 2 1 0 1 1 1 0 3 2 2 3 1 1 0 1 1 0 1 1 1 1 3 3 2 2 1 3 3 3 1 5 4 3 2 1 0 1 3 5 4 6 7 3 2 2 4 5 5 6 6 6 5 5 5 6 7 7
10 10 10 9 9 8 8 8 8 7 8 9 10 9 7 6 5 6 6 3 2 3 4 4 2 1 3 2 3 4 3 4 1 1 0 1 1 4 2 0 2 3 3 2 0 0 0 1 0 0 3 2 3 3 3 3 5 4 4 4 5 1 2 0 3 3 1 1 2 2 8 9 9 11 8 5 6 7 7 8 7 8 7 6 6 5 7 8
9 9 8 9 8 8 7 6 6 7 9 12 13 9 6 6 3 5 3 3 3 2 1 4 4 6 1 6 5 5 2 1 3 1 2 1 0 2 1 1 3 4 3 2 1 1 0 2 1 2 3 3 4 4 3 5 2 3 2 5 3 3 4 4 2 0 1 2 4 5 8 7 8 10 8 7 7 10 9 7 6 7 7 7 7 7 7 7
8 7 7 6 5 5 5 5 6 7 9 9 1 2 2 1 1 3 3 3 5 1 3 2 8 5 4 5 3 2 2 3 2 3 2 1 0 2 2 3 1 2 2 2 3 1 1 2 3 3 3 4 5 4 4 3 5 2 1 1 2 2 2 3 3 2 2 1 5 7 8 10 10 11 10 7 6 5 5 7 8 8 8 8 8 8 9 9
9 8 8 7 6 5 6 6 6 8 7 5 7 3 3 5 6 5 5 4 3 0 1 3 4 3 4 5 4 6 5 1 2 2 1 1 3 2 3 3 3 2 3 1 4 0 0 0 3 4 6 1 2 6 1 1 2 1 4 5 5 1 2 2 2 2 2 0 2 3 6 9 8 7 8 6 6 10 10 12 11 10 8 8 9 10 10 9
9 9 8 8 7 7 6 7 6 5 8 4 4 3 2 2 2 1 0 4 2 2 2 2 3 4 1 5 1 2 3 3 1 2 1 0 3 3 4 3 5 4 4 5 6 2 1 4 3 4 2 3 4 5 4 3 2 3 1 2 1 4 1 4 4 0 1 1 6 3 6 10 8 8 11 10 12 11 10 12 12 11 10 9 9 10 9 6
9 8 8 7 7 5 6 3 3 4 4 3 3 5 2 1 1 2 1 2 2 0 1 1 2 5 2 1 1 1 3 3 4 4 3 1 4 2 5 3 5 2 6 5 4 4 2 4 5 2 1 4 3 4 3 2 2 1 1 1 3 0 2 2 1 2 1 2 3 4 8 14 11 10 15 17 16 14 11 10 10 9 9 9 11 9 6 8
10 9 7 7 5 5 4 5 6 5 4 1 4 2 2 1 1 2 1 1 1 1 1 1 1 3 4 4 3 3 3 2 3 7 3 2 5 3 1 5 4 3 5 5 6 5 3 1 1 1 2 0 0 1 0 1 2 4 4 2 2 1 1 1 1 2 2 2 3 4 7 10 7 8 6 10 14 9 7 7 9 8 8 9 7 5 6 7
4 9 8 7 5 4 3 2 3 2 1 1 1 2 1 0 1 1 0 1 0 0 3 2 2 2 2 2 2 2 1 2 5 4 4 3 4 2 2 0 1 4 3 5 5 4 2 2 1 4 1 2 3 3 4 3 4 3 6 8 5 4 1 3 3 4 2 2 0 1 5 6 2 3 7 6 2 3 5 8 9 6 7 7 9 10 7 6
13 4 9 8 6 6 4 2 3 3 3 2 2 0 1 1 1 0 0 1 3 3 2 4 3 3 3 3 3 1 2 2 2 2 1 1 3 1 2 1 2 1 4 4 5 1 1 1 1 3 4 2 1 2 4 4 3 1 2 4 2 2 1 2 1 2 2 1 2 1 1 8 8 10 7 7 7 7 5 7 7 6 9 9 11 9 8 9
12 9 7 9 9 9 1 1 2 2 3 2 1 0 1 0 2 1 1 1 4 5 7 2 1 1 1 5 5 2 3 4 1 1 1 3 1 1 2 3 1 0 2 0 4 1 3 1 3 1 4 3 2 1 2 6 3 2 2 3 2 1 2 0 1 2 3 1 2 3 2 2 9 17 2 2 2 5 6 6 6 7 9 10 7 7 8 7
14 15 3 9 11 10 1 5 3 3 2 1 0 1 1 1 0 1 0 2 3 5 3 3 1 2 1 5 5 4 1 8 4 2 3 1 1 1 2 3 6 3 1 2 5 1 0 3 3 3 1 2 3 2 3 3 2 1 1 3 1 2 3 1 1 1 1 2 6 1 2 0 5 14 6 2 7 7 10 10 8 11 10 8 6 5 5 4
14 13 11 6 8 9 5 4 7 3 2 2 1 2 1 2 1 1 1 2 1 3 4 6 3 1 3 2 3 5 2 2 1 2 1 1 2 0 3 4 2 4 5 4 3 1 2 1 0 2 4 4 3 1 3 1 2 2 2 0 3 2 1 1 1 0 0 0 6 4 5 3 7 6 14 1 4 7 5 8 10 4 4 4 5 5 5 4
13 13 12 1 5 2 3 4 4 1 3 2 1 2 1 2 1 1 4 5 3 2 1 2 2 8 6 9 3 3 3 1 2 2 2 2 1 0 1 0 1 2 3 3 4 2 1 2 4 1 2 1 3 2 1 4 3 4 3 4 1 1 1 1 1 1 1 4 7 8 8 5 7 5 9 6 2 5 4 1 2 3 4 4 4 4 4 4
12 12 10 1 3 1 1 2 2 3 2 2 2 2 2 0 2 3 4 3 4 2 1 3 3 10 11 11 7 3 3 3 3 6 4 1 2 2 1 1 2 3 4 1 0 2 1 1 1 0 2 3 4 4 3 1 2 1 2 2 2 1 2 0 0 1 1 6 1 2 8 6 8 3 7 7 1 0 1 2 3 3 3 2 1 3 4 5
13 11 10 2 2 3 3 1 2 3 3 2 2 1 3 4 3 5 4 3 1 5 5 5 5 8 12 9 5 10 8 5 5 7 8 6 6 6 6 6 4 3 2 4 3 2 2 3 2 3 6 2 2 6 4 2 1 1 1 1 2 1 2 1 1 2 4 6 0 2 2 2 16 7 6 5 6 3 2 3 2 4 4 4 4 5 4 3
11 12 9 3 5 2 1 0 2 2 4 2 1 1 3 4 6 8 5 6 1 3 1 6 9 10 10 8 5 7 4 6 6 4 7 4 8 6 7 7 9 7 3 6 4 2 2 1 4 2 4 4 3 7 3 1 2 3 5 5 5 2 3 4 4 2 2 0 3 2 1 6 5 4 9 13 15 13 4 1 1 1 2 3 4 4 4 3
11 9 5 2 2 3 3 2 1 2 3 1 2 4 0 5 6 9 5 2 1 1 5 3 9 7 11 8 6 8 3 2 10 5 6 5 5 6 6 9 7 7 0 2 7 6 3 3 4 5 3 6 5 7 10 6 8 9 4 8 7 6 3 4 3 5 4 3 1 4 1 7 3 2 2 2 4 5 4 1 1 2 3 1 1 2 4 5
13 8 4 1 2 2 2 3 1 2 1 2 4 4 9 8 4 6 7 2 1 3 3 4 6 7 6 3 1 10 2 3 8 6 6 7 7 6 8 9 10 5 3 2 3 2 9 4 2 12 1 12 11 6 6 4 3 4 4 1 3 8 0 3 1 0 0 1 1 1 6 2 4 3 5 4 6 8 6 6 4 6 1 1 1 4 5 5
8 1 1 2 2 1 2 1 2 1 6 3 5 6 10 7 4 4 3 2 3 4 8 6 3 4 5 3 2 5 5 2 7 4 3 6 5 8 6 5 10 14 7 8 3 3 3 3 2 2 4 14 9 4 4 6 4 5 4 6 6 1 1 1 1 1 2 2 9 4 7 9 3 11 11 14 15 15 9 5 3 3 3 2 4 6 6 6
2 3 2 3 2 2 3 1 2 1 5 5 3 7 4 2 1 2 3 2 1 11 6 7 4 4 6 4 2 2 2 3 5 4 4 3 4 6 7 6 9 11 11 9 3 2 5 3 2 1 4 0 0 1 1 4 0 5 3 5 1 3 3 3 4 0 1 6 8 3 9 13 3 11 2 2 7 7 3 8 8 6 5 6 8 7 3 4
4 2 4 4 2 6 5 4 1 2 3 5 5 4 2 3 1 2 2 3 1 5 3 4 2 7 5 7 6 7 4 5 6 4 3 10 3 8 10 5 9 10 13 8 4 2 4 2 2 2 3 2 3 1 0 2 5 4 3 1 4 2 4 2 2 5 4 4 4 4 7 10 8 14 5 10 2 5 5 5 6 6 5 4 6 5 2 3
2 2 2 5 3 4 5 5 4 3 5 7 6 6 5 9 2 3 2 5 2 2 4 2 2 3 1 8 4 8 10 7 8 6 4 3 4 6 11 7 4 9 10 11 7 2 2 5 0 2 3 0 1 2 8 4 2 0 2 1 1 2 1 6 6 1 2 5 2 12 5 8 8 5 2 5 5 5 5 5 5 3 1 1 1 2 4 4
3 1 3 2 5 4 6 5 3 4 2 9 10 8 3 8 7 8 5 2 2 1 0 2 3 2 0 1 3 6 6 7 9 5 5 3 5 2 4 10 3 5 7 10 6 5 2 3 4 1 4 2 1 5 8 8 7 0 0 2 0 0 1 3 3 4 5 3 4 4 10 9 9 4 6 7 3 2 4 4 5 5 2 1 1 2 5 5
2 2 1 2 1 5 7 5 6 5 5 3 3 6 7 5 8 10 12 9 0 3 2 2 2 2 0 2 1 2 4 5 6 6 5 4 8 1 2 1 5 4 4 3 5 3 1 4 7 2 1 4 6 5 8 9 14 11 12 11 11 7 3 4 8 1 1 4 3 4 13 12 9 4 1 2 4 6 5 5 3 6 9 10 9 6 4 4
2 3 1 1 2 5 8 8 5 2 3 6 6 6 3 2 4 7 8 7 7 2 2 1 1 1 1 2 1 2 1 4 2 3 4 6 5 4 1 3 1 6 6 4 7 3 3 2 3 4 8 9 6 0 2 2 0 3 7 8 10 7 5 4 8 4 1 4 2 2 4 18 10 6 4 3 2 1 2 1 6 6 4 5 5 4 5 5
3 2 2 4 1 6 7 6 4 5 6 5 3 5 2 0 3 5 7 6 6 5 2 4 5 3 3 3 0 1 1 1 2 5 1 1 2 3 1 5 2 6 2 2 2 2 4 2 1 3 2 3 2 1 1 1 0 2 4 3 3 7 6 5 4 2 3 2 4 3 8 14 20 3 6 7 6 6 8 6 6 6 5 5 4 4 5 6
4 3 1 1 0 2 8 9 9 10 8 2 5 5 6 3 4 5 6 8 6 6 8 4 4 7 3 3 1 4 2 1 2 1 2 1 2 4 4 4 2 1 2 1 2 2 3 2 6 2 0 0 1 2 2 2 1 1 2 3 3 2 2 2 2 2 3 5 5 6 11 10 22 2 5 0 2 1 1 2 4 6 5 5 6 6 3 3
2 2 2 2 1 4 10 6 7 7 8 8 7 10 7 5 5 8 8 7 6 4 5 7 6 7 7 4 6 5 3 6 1 2 3 1 3 1 3 4 5 1 3 1 5 1 1 2 5 7 9 8 6 4 4 2 6 3 3 4 6 9 5 4 6 4 8 6 10 7 10 12 18 22 12 11 10 6 2 4 5 5 6 6 6 5 5 5
5 4 3 2 2 3 6 4 4 4 8 9 9 8 8 7 4 7 7 6 9 5 6 3 6 6 8 9 8 9 10 11 11 2 3 3 3 1 1 2 6 3 2 8 2 4 1 1 1 4 7 8 4 1 1 6 3 3 5 9 9 6 6 6 1 4 10 8 11 9 11 15 22 25 22 17 16 11 4 5 7 8 8 8 6 6 6 6
2 5 5 5 3 5 6 6 7 3 3 8 8 5 10 11 5 5 8 3 8 7 4 5 2 8 8 10 9 9 11 9 12 10 7 6 1 2 1 1 4 4 11 5 3 5 2 1 5 4 6 7 6 6 4 2 3 8 8 7 8 8 5 6 10 13 9 5 14 11 13 14 20 22 22 22 19 10 3 5 6 6 6 6 7 7 8 4
5 5 3 4 4 9 11 11 13 10 8 3 6 4 7 9 9 6 6 6 4 9 5 4 7 9 9 12 8 7 10 10 10 12 10 5 2 1 2 1 3 5 6 2 1 5 4 4 4 4 8 10 9 10 8 7 3 3 4 4 5 8 8 9 11 14 11 11 16 13 9 12 15 17 21 23 17 10 7 5 4 5 6 7 7 6 5 5
5 3 4 5 6 4 10 3 7 11 8 7 4 7 8 11 13 10 4 6 5 5 10 6 13 13 11 7 8 6 7 7 8 9 6 4 5 3 2 1 1 3 4 2 1 2 5 6 6 5 7 10 11 11 8 10 11 9 8 10 7 5 9 13 15 15 15 13 13 14 17 21 16 17 20 22 18 15 14 9 9 10 10 9 7 6 6 7
8 5 2 4 4 4 5 10 5 10 10 9 5 7 6 9 12 9 5 7 7 8 8 12 8 11 11 9 10 9 7 8 5 6 6 6 3 5 5 4 3 1 1 4 4 2 7 5 10 5 5 11 15 14 11 11 10 12 11 11 12 11 11 10 9 11 11 12 15 19 19 21 18 15 13 17 20 18 14 14 16 15 12 10 8 9 9 9
3 4 3 3 6 4 4 6 10 9 9 10 9 9 7 10 12 10 8 8 10 9 9 15 13 6 8 10 11 12 7 6 6 5 2 4 6 2 3 2 5 5 3 3 1 0 3 2 3 4 6 8 11 11 14 11 8 9 12 12 15 18 18 16 14 7 7 12 15 12 12 16 19 13 7 15 19 19 17 15 16 16 14 10 7 9 12 13
6 6 3 1 4 4 5 3 5 8 10 11 13 16 10 12 6 6 6 7 9 8 8 12 8 6 6 10 14 14 7 3 2 8 7 4 4 4 4 2 5 2 3 4 2 5 5 4 5 5 7 10 10 5 6 4 3 7 11 19 23 20 17 15 12 12 17 16 12 12 17 14 13 13 14 17 19 19 18 16 17 19 16 10 7 10 12 15
Wind_Direction
201 243 238 233 246 272 298 317 317 337 338 342 345 341 358 355 2 354 358 357 350 352 346 342 341 336 335 335 335 338 333 297 231 221 223 72 294 4 3 339 348 334 346 319 278 238 232 211 188 174 171 213 88 197 244 296 1 280 174 159 274 241 291 148 99 117 159 128 150 169 176 155 134 148 130 73 66 280 123 210 100 64 64 100 116 111 102 113
184 234 234 228 254 254 279 293 325 329 343 343 337 338 347 350 352 346 352 351 352 347 347 344 338 338 337 335 337 335 324 274 262 241 95 16 8 2 8 356 338 349 323 275 243 218 240 167 154 207 166 205 189 101 283 164 273 166 207 182 245 269 16 4 69 40 36 109 163 161 191 204 168 150 150 156 196 189 199 208 149 132 102 100 118 118 131 140
155 218 233 235 241 255 267 291 307 313 327 332 325 331 329 341 335 343 344 346 345 345 345 343 339 336 338 337 334 328 311 246 258 238 101 314 17 21 3 349 329 337 353 316 314 312 307 276 147 203 214 147 236 155 279 185 80 258 50 235 233 72 84 40 57 79 56 345 134 145 175 224 108 139 119 213 205 171 204 195 178 184 163 156 153 149 143 161
160 197 219 226 242 264 266 279 292 300 313 317 319 316 328 324 324 338 339 336 342 340 340 341 339 339 337 336 334 319 280 313 260 97 91 22 19 8 358 328 325 307 272 258 265 290 300 308 156 230 207 230 157 97 172 173 125 37 120 280 9 315 55 33 57 55 42 12 106 125 95 234 135 125 157 183 274 217 203 210 178 201 178 168 161 158 152 163
153 171 222 233 246 250 258 276 281 293 296 299 303 306 311 310 317 326 334 335 334 337 337 336 340 338 339 337 325 291 332 301 135 56 38 340 355 1 325 316 309 304 279 289 300 267 264 247 211 247 249 168 142 118 222 115 337 134 204 89 4 5 69 20 70 26 10 293 60 95 133 214 90 68 176 240 209 236 198 318 228 189 195 153 157 164 157 166
162 166 208 239 246 245 253 264 283 286 283 292 289 299 296 302 309 318 327 330 331 331 332 338 338 341 340 334 319 271 307 192 328 110 231 339 328 330 304 289 285 290 276 269 263 252 269 236 202 228 232 219 156 179 138 106 116 226 167 81 48 15 86 22 75 4 325 1 123 155 35 51 112 182 193 226 230 150 141 92 50 49 107 146 145 149 164 169
163 171 189 228 241 244 255 273 271 280 293 291 297 306 301 301 310 318 321 323 325 326 330 335 342 342 338 319 236 267 243 339 105 177 163 327 295 245 296 263 254 268 264 281 258 248 231 232 226 196 234 228 161 160 107 126 217 290 65 92 43 20 70 34 92 252 15 349 50 26 289 288 139 242 193 204 218 237 100 100 91 57 102 130 146 165 172 178
161 172 159 223 236 247 258 268 281 290 293 297 307 304 310 309 319 319 323 324 321 320 327 336 340 348 354 314 130 197 225 182 59 178 148 255 277 188 196 259 238 251 268 244 274 227 202 244 206 238 252 253 179 139 173 128 206 200 199 116 96 74 85 81 104 83 56 59 43 19 1 235 239 266 23 258 245 255 130 116 106 107 115 137 144 170 176 182
168 175 201 219 237 240 274 273 281 286 293 303 306 307 310 319 317 324 324 324 321 319 322 333 340 348 332 319 249 268 211 58 338 341 36 347 332 22 176 212 192 229 273 260 252 305 299 219 250 199 327 145 248 106 228 179 196 211 78 105 132 103 115 131 108 111 171 103 17 5 220 245 84 9 255 245 239 229 163 126 131 131 133 174 164 174 178 184
163 169 201 221 234 237 253 263 275 279 285 296 297 298 301 308 316 318 318 321 318 318 319 329 344 343 342 189 225 255 101 258 295 4 29 288 297 262 223 311 328 271 254 198 288 268 260 334 341 36 11 34 247 65 48 21 152 351 128 109 120 130 121 285 167 117 118 50 133 306 291 215 52 97 276 25 263 190 140 157 154 149 171 183 183 177 185 184
168 174 198 224 230 235 247 256 262 272 282 286 286 289 296 302 315 312 315 312 316 311 319 331 347 340 245 234 261 227 213 278 324 348 32 259 279 282 45 352 347 317 310 177 13 46 339 315 2 4 27 125 97 89 18 148 280 116 96 90 92 159 126 161 195 130 156 119 261 290 279 309 144 137 239 207 226 136 151 173 174 181 197 201 199 194 191 191
183 187 205 220 226 239 242 249 252 262 278 283 286 291 293 298 306 309 310 313 301 307 318 329 346 332 272 276 241 311 271 4 303 319 321 338 75 174 291 321 315 306 329 325 84 23 6 320 328 348 289 141 131 100 81 225 247 135 159 143 168 144 180 177 185 176 219 102 262 31 301 261 173 224 236 193 150 154 183 191 200 196 205 215 212 199 194 197
189 207 207 210 222 232 234 242 247 259 264 280 287 294 297 300 300 305 304 305 305 310 319 341 331 245 349 224 66 218 286 323 8 281 99 76 172 246 194 210 264 348 344 338 83 9 332 309 333 271 48 305 97 157 156 239 106 129 247 293 144 185 232 197 145 124 166 109 168 72 340 251 223 226 242 154 158 157 170 203 196 198 203 207 208 201 197 194
168 182 191 201 212 220 230 231 251 270 288 294 297 297 297 298 299 295 295 293 299 293 312 352 7 266 256 321 126 87 323 326 278 262 33 335 253 324 179 205 68 59 51 92 104 244 297 298 300 99 63 25 150 258 131 98 104 175 181 134 231 141 279 151 160 169 179 142 177 72 225 286 294 352 167 142 149 159 196 207 220 218 208 195 195 197 196 203
177 180 196 189 196 211 229 268 262 277 287 296 298 296 297 297 295 292 290 289 273 285 331 293 218 191 206 85 228 117 321 279 264 67 38 359 51 191 126 96 63 65 51 68 112 249 260 308 330 154 46 304 85 136 133 143 203 210 80 281 283 232 118 199 27 161 194 236 223 142 271 258 275 226 83 112 112 173 220 235 231 228 223 207 186 189 195 208
182 191 205 214 216 227 239 258 268 281 293 295 295 295 290 286 284 284 283 275 285 288 251 238 171 268 320 210 92 315 233 209 136 51 74 277 7 106 107 116 163 131 133 30 311 280 296 355 56 33 122 347 223 176 165 118 221 214 167 236 188 218 170 194 250 58 41 120 238 175 233 323 322 101 131 168 156 165 209 250 258 241 228 218 200 192 197 206
187 194 209 218 235 238 249 251 259 263 280 285 291 286 279 268 272 271 268 280 267 199 231 320 155 167 260 6 315 224 170 63 252 186 0 76 297 230 146 174 114 96 77 196 66 295 22 87 252 359 298 195 200 226 141 202 187 217 170 252 229 177 169 208 20 248 19 265 186 222 254 240 264 234 158 256 194 177 203 223 234 239 229 224 214 203 202 204
192 201 211 217 229 237 246 252 258 274 285 289 285 285 285 287 281 282 246 240 219 208 227 218 268 184 231 10 200 155 80 113 89 121 280 333 283 307 320 161 126 145 170 121 36 113 28 70 40 248 133 253 216 235 156 201 203 186 179 218 261 132 287 275 162 179 186 140 284 232 224 248 257 276 266 220 206 200 207 217 222 229 235 242 231 219 210 206
199 203 208 218 229 236 248 260 279 293 303 304 285 276 271 279 257 235 245 157 173 88 166 183 183 187 236 168 105 94 47 155 134 230 174 177 210 290 257 286 202 152 170 186 161 211 142 72 66 353 193 193 227 225 173 249 23 9 192 190 208 170 212 230 77 160 265 178 210 237 252 260 255 259 257 253 215 206 224 230 235 235 234 238 235 231 225 218
205 203 214 218 223 234 254 273 287 303 320 323 245 174 175 163 171 146 188 207 255 47 332 118 183 83 110 102 95 351 212 229 145 27 76 345 217 204 224 207 90 321 172 180 145 221 72 147 168 202 226 189 227 244 246 32 16 19 350 27 331 9 38 79 81 25 313 355 255 242 253 258 261 262 268 265 277 266 237 232 232 228 230 230 233 233 229 222
205 206 215 224 228 240 257 274 286 302 308 302 301 233 187 182 162 168 159 222 214 127 16 55 20 66 88 106 133 163 127 104 289 154 166 329 311 197 166 189 149 209 228 171 129 115 133 163 218 213 234 281 257 205 114 86 31 24 19 8 331 104 296 47 129 198 359 17 295 308 289 272 270 270 268 265 262 254 246 251 251 247 237 229 228 235 232 233
213 215 213 220 227 241 262 265 296 295 285 267 290 259 25 26 313 48 356 176 208 111 152 64 240 84 5 113 133 20 309 124 144 111 162 203 198 168 152 213 167 199 164 79 79 72 92 194 224 218 103 98 47 34 49 32 343 19 39 345 325 290 153 92 76 246 176 124 261 279 302 280 271 274 273 263 252 244 232 228 233 233 240 242 237 234 232 221
211 214 220 219 226 239 247 263 263 281 299 214 228 258 60 23 188 143 249 328 165 321 203 226 161 133 107 350 193 230 193 153 167 169 185 231 154 282 139 199 184 187 134 156 134 157 162 227 226 87 94 81 65 57 22 345 29 352 185 195 256 269 57 293 18 8 264 207 274 345 304 285 273 252 252 250 240 242 237 236 237 222 232 235 236 227 212 215
214 211 215 221 196 216 237 252 282 274 237 320 303 25 103 240 280 231 247 259 133 155 213 170 300 162 155 150 167 185 210 118 134 170 125 187 173 132 228 197 205 189 175 182 195 180 182 80 329 37 82 204 155 82 130 106 255 206 227 239 240 186 147 95 145 252 220 244 33 314 288 281 255 248 258 257 242 238 239 235 236 235 226 235 252 267 225 218
318 213 207 211 190 162 192 24 264 206 69 135 211 73 135 59 245 333 344 214 240 135 324 353 133 276 142 303 121 207 91 65 18 126 157 210 148 80 228 178 264 210 208 176 206 235 126 281 1 126 205 132 187 157 194 170 238 253 203 197 216 279 310 124 76 22 354 324 335 1 352 292 323 330 300 299 9 236 221 214 232 228 244 249 250 245 250 249
18 277 202 197 157 141 89 262 183 137 203 168 65 135 141 171 272 324 343 204 248 139 35 204 108 202 98 148 102 215 58 182 350 12 90 67 339 227 70 288 108 237 201 179 203 195 86 263 308 130 138 122 231 196 199 166 224 245 290 0 3 300 32 83 329 49 300 212 263 244 97 287 302 281 263 295 282 251 240 222 230 220 228 232 232 230 229 229
20 6 217 189 155 129 193 104 42 128 193 118 117 58 203 196 267 278 188 63 285 167 155 356 80 243 33 163 154 148 141 190 168 90 64 349 141 40 172 156 84 114 308 10 41 273 116 146 54 346 94 136 120 194 195 162 190 249 318 345 344 99 95 193 168 171 241 355 290 143 168 220 307 289 154 234 227 286 287 257 238 226 230 230 222 202 212 215
13 7 324 191 167 167 318 313 246 201 35 75 259 242 184 244 171 224 49 165 255 138 143 227 252 328 324 167 195 156 30 124 138 210 12 320 320 63 38 159 172 186 211 86 179 359 168 160 160 134 167 121 185 145 316 182 156 192 239 292 16 53 105 105 147 215 186 57 296 175 191 57 247 275 280 218 278 262 258 256 245 240 240 233 213 181 155 139
11 3 356 201 183 200 327 324 333 19 333 38 179 233 210 164 238 258 219 228 105 101 308 123 308 172 92 111 204 131 152 7 354 76 288 32 23 102 188 249 263 202 176 172 212 74 360 132 219 161 142 179 100 25 334 35 149 256 210 73 87 72 72 76 224 92 316 82 259 183 192 224 264 251 288 259 211 264 258 260 255 260 233 173 142 120 119 108
10 356 354 287 138 284 268 267 261 7 279 311 26 275 195 215 141 224 126 249 132 184 84 115 218 164 162 151 152 151 139 95 52 123 166 155 147 287 356 110 248 68 140 51 65 62 101 216 174 12 184 104 126 79 51 42 76 135 164 111 96 105 102 333 75 80 25 261 243 182 199 182 285 226 227 273 222 212 225 270 72 64 57 61 94 123 133 145
3 352 356 193 158 150 146 243 121 338 346 301 312 288 245 160 197 183 175 218 24 83 141 144 125 142 161 160 160 197 124 117 134 143 126 180 81 306 150 21 345 61 34 18 53 140 132 54 355 134 65 129 120 75 26 0 44 118 153 150 130 298 47 26 324 63 203 264 358 300 191 190 226 275 238 238 245 110 152 262 149 115 124 125 142 149 165 153
355 347 348 305 353 305 217 261 3 301 317 340 299 230 174 143 321 205 194 56 200 173 172 171 156 159 174 175 141 174 162 136 153 169 150 171 151 176 201 175 157 105 295 176 244 71 221 210 147 55 310 162 154 87 1 23 328 347 104 87 105 248 73 307 106 245 205 235 238 354 348 0 248 225 280 322 300 278 182 223 135 128 162 175 174 187 173 151
346 339 324 5 335 241 300 252 284 277 294 305 299 224 189 166 208 205 229 147 272 107 160 147 158 171 174 175 166 161 133 160 165 194 147 175 162 210 202 196 183 172 187 187 174 101 267 90 133 98 33 265 190 130 146 20 244 202 161 159 129 207 211 240 229 203 246 304 280 353 354 261 288 298 204 229 244 255 256 229 62 104 163 163 192 185 171 194
336 331 331 30 318 315 322 293 188 290 332 6 102 116 164 204 219 190 202 183 43 300 134 152 155 160 174 185 163 149 153 177 157 182 176 161 190 184 208 230 194 227 19 144 174 175 202 304 238 125 251 172 213 197 175 170 175 200 193 161 177 163 174 214 178 205 215 209 318 288 61 234 100 238 308 285 295 300 304 262 182 203 227 211 108 148 172 193
321 309 277 260 272 256 262 320 6 306 60 38 76 145 175 210 233 176 210 129 162 86 107 136 148 155 183 180 105 157 103 166 174 161 190 164 201 201 184 202 213 205 169 222 203 133 210 220 212 183 164 159 188 214 179 125 149 217 209 208 234 225 84 203 186 134 281 12 317 259 216 233 189 307 265 290 313 311 313 303 320 301 346 91 218 231 223 209
313 171 165 244 198 233 162 334 320 269 126 70 108 175 201 193 187 160 208 89 145 146 133 140 132 157 172 149 306 170 332 109 182 152 205 205 192 200 190 188 197 196 181 192 156 163 135 222 88 71 135 174 197 177 214 141 178 222 154 217 201 44 86 19 7 33 111 28 255 171 291 261 288 273 259 261 254 245 251 294 322 293 297 265 256 258 233 223
298 317 240 189 207 155 138 102 338 130 121 124 102 214 217 353 219 17 357 309 152 135 156 135 197 168 177 172 153 200 129 79 168 154 201 163 270 215 209 215 186 194 209 172 248 191 140 203 326 82 187 354 309 298 3 30 68 103 188 220 62 41 92 145 219 30 186 213 265 135 246 284 23 292 305 215 260 282 230 248 258 280 278 281 272 277 288 214
323 306 292 287 175 150 131 127 89 34 117 142 177 212 343 268 305 330 8 304 313 167 162 163 148 188 181 166 179 171 187 161 182 176 213 160 256 188 212 219 192 197 201 202 174 254 159 256 239 358 355 353 353 4 327 42 31 118 182 321 131 246 264 262 103 249 246 242 285 259 243 269 232 252 301 319 264 257 246 227 218 236 259 268 290 297 279 201
289 293 259 208 175 142 125 159 164 113 111 179 197 214 221 230 279 269 6 335 303 295 193 198 105 215 155 194 153 172 162 183 164 194 161 192 211 191 201 190 212 198 194 192 210 240 102 187 291 328 0 198 46 143 196 210 347 41 11 14 112 100 174 158 196 215 116 245 217 275 276 262 236 246 126 231 212 209 197 193 192 176 157 256 276 323 313 301
250 181 227 72 139 146 133 165 146 148 131 194 187 212 168 204 214 246 251 302 2 351 350 62 351 140 183 344 169 162 180 179 159 190 191 172 204 173 210 173 188 197 184 189 219 139 267 140 233 258 305 91 214 202 216 166 155 258 50 258 212 135 308 111 308 184 175 201 203 264 285 251 255 178 217 243 243 260 160 125 88 67 41 16 338 291 303 302
269 271 84 337 159 139 137 166 201 196 192 220 213 205 176 183 187 213 229 223 217 36 3 42 34 122 68 138 7 87 161 191 173 181 184 201 182 195 322 93 177 178 161 197 201 157 169 149 198 109 35 235 236 203 202 185 187 185 185 203 192 162 182 210 257 169 187 195 220 219 255 278 252 103 60 78 89 90 66 82 48 355 343 320 304 285 256 269
213 186 154 106 272 178 158 182 208 211 236 203 198 188 212 170 168 189 205 204 226 189 45 78 48 65 101 58 92 19 117 174 192 176 195 200 202 205 325 314 349 130 149 173 198 199 152 161 144 176 205 209 217 327 230 66 213 237 193 221 202 197 178 164 219 245 175 255 263 209 306 266 260 119 129 86 47 80 138 17 312 310 270 238 241 243 256 247
214 223 54 258 253 202 173 207 200 197 220 221 221 227 162 227 181 167 166 181 199 201 158 199 200 164 234 154 119 45 80 94 182 196 48 323 339 46 46 62 124 130 112 355 40 301 83 168 144 250 109 22 34 163 47 8 50 326 285 261 157 212 195 195 190 188 183 200 212 239 240 266 272 175 305 286 278 279 286 291 286 275 241 229 207 233 259 308
211 234 134 262 106 234 186 196 196 207 217 218 208 226 194 179 179 171 179 172 192 174 200 181 194 198 202 135 111 153 230 37 273 236 286 161 262 97 165 78 59 122 108 241 143 250 147 263 170 159 175 29 357 2 339 11 46 223 237 231 224 265 169 188 123 64 258 197 186 177 242 252 270 119 197 338 114 278 263 235 214 247 259 249 254 262 247 227
253 243 287 119 138 205 203 215 215 204 208 203 197 213 202 210 204 201 178 183 190 213 174 213 195 143 203 147 194 214 177 181 298 224 242 190 231 59 94 119 70 56 80 108 110 34 98 233 163 184 196 201 215 195 219 251 228 245 216 234 220 206 176 105 210 169 229 221 225 221 247 257 280 284 269 272 265 261 256 260 267 233 238 250 257 254 220 210
212 200 184 184 149 229 275 335 345 251 207 200 214 213 203 208 161 210 189 197 183 211 216 195 191 187 191 163 187 195 206 193 202 225 172 234 235 69 329 191 174 174 120 122 98 84 143 9 163 206 213 223 208 130 202 131 87 174 241 206 226 223 207 192 157 198 217 230 238 235 241 265 268 274 283 279 272 271 300 311 291 291 284 264 248 251 247 233
250 233 156 186 132 249 246 238 236 233 237 189 214 184 206 210 178 188 186 214 187 201 204 223 176 187 195 195 189 198 194 195 206 223 199 210 180 154 160 198 97 114 131 86 344 76 92 217 247 271 269 269 285 275 312 70 167 215 219 232 222 225 216 195 202 229 221 244 257 236 232 244 259 272 276 277 280 290 280 254 272 279 276 272 260 250 253 247
228 235 251 193 192 195 205 227 219 225 247 267 227 179 208 206 202 197 171 219 181 192 199 201 225 212 204 198 189 205 187 200 186 215 226 211 122 78 101 334 149 187 113 94 339 120 129 218 219 212 257 269 277 287 306 319 298 298 270 259 245 229 223 217 230 236 226 223 243 253 255 251 258 267 276 277 282 299 294 283 276 289 307 310 303 276 259 228
259 335 251 194 216 203 214 223 184 217 224 237 257 208 200 203 208 205 172 184 216 200 198 208 208 213 211 206 201 210 193 200 207 204 205 194 189 119 145 71 10 133 115 107 74 162 114 226 225 182 249 266 269 264 266 274 283 280 273 272 267 247 229 223 234 235 234 244 253 264 268 262 258 263 269 282 297 294 294 303 301 296 293 290 287 277 266 266
195 206 238 253 270 277 193 203 178 189 218 223 238 220 212 205 213 201 194 168 184 220 190 221 212 205 208 212 215 218 204 206 205 213 183 171 201 169 195 178 139 342 32 156 137 274 152 229 163 162 213 247 249 257 263 257 257 268 267 274 279 279 273 248 240 244 247 252 251 252 257 267 264 256 277 290 285 291 298 295 290 286 283 278 278 284 279 269
264 215 333 310 244 226 269 194 192 194 207 217 231 235 232 216 215 198 210 184 186 189 192 211 212 202 203 210 219 230 224 219 221 239 50 185 184 211 149 265 134 161 171 122 114 127 139 276 103 138 193 251 246 238 245 246 241 250 265 256 248 249 252 252 246 237 227 235 241 248 256 258 265 276 271 274 283 285 289 291 288 287 285 286 281 278 276 271
241 307 325 301 263 208 201 234 194 173 219 211 213 217 211 219 217 177 220 200 204 206 198 209 200 202 218 212 219 224 227 238 54 70 105 84 67 80 72 95 56 93 168 156 154 147 173 164 144 162 201 240 250 191 235 229 217 228 227 238 234 238 241 250 252 243 237 236 243 235 240 249 272 284 281 272 268 278 286 284 284 284 283 281 267 263 269 273